TimeICT,TemperatureF,Dew PointF,Humidity,Sea Level PressureIn,VisibilityMPH,Wind Direction,Wind SpeedMPH,Gust SpeedMPH,PrecipitationIn,Events,Conditions,WindDirDegrees,DateUTC
12:00 AM,86.0,73.4,66,29.74,6.2,SW,5.8,-,N/A,,Partly Cloudy,230,2013-03-29 17:00:00
12:30 AM,86.0,69.8,58,29.74,6.2,SSE,4.6,-,N/A,,Partly Cloudy,150,2013-03-29 17:30:00
1:00 AM,86.0,69.8,58,29.74,6.2,SE,6.9,-,N/A,,Partly Cloudy,140,2013-03-29 18:00:00
6:00 AM,82.4,75.2,79,29.74,6.2,SSE,5.8,-,N/A,,Partly Cloudy,150,2013-03-29 23:00:00
7:00 AM,82,77,81,29.81,6,East,183.5,,,,Scattered Clouds,100,2013-03-30 00:00:00
7:00 AM,82.4,75.2,79,29.77,6.2,SSE,9.2,-,N/A,,Partly Cloudy,160,2013-03-30 00:00:00
7:30 AM,84.2,75.2,74,29.77,6.2,SSE,8.1,-,N/A,,Partly Cloudy,150,2013-03-30 00:30:00
8:00 AM,86.0,75.2,70,29.80,6.2,SSE,9.2,-,N/A,,Scattered Clouds,150,2013-03-30 01:00:00
8:30 AM,87.8,75.2,66,29.80,-9999.0,North,-9999.0,-,N/A,,Scattered Clouds,0,2013-03-30 01:30:00
9:00 AM,87.8,75.2,66,29.80,6.2,South,8.1,-,N/A,,Scattered Clouds,170,2013-03-30 02:00:00
9:30 AM,89.6,75.2,62,29.80,6.2,SSE,8.1,-,N/A,,Scattered Clouds,160,2013-03-30 02:30:00
10:00 AM,91.4,73.4,55,29.80,6.2,SSE,5.8,-,N/A,,Scattered Clouds,150,2013-03-30 03:00:00
10:30 AM,91.4,71.6,52,29.80,6.2,SE,9.2,-,N/A,,Scattered Clouds,140,2013-03-30 03:30:00
11:00 AM,93.2,71.6,49,29.77,6.2,SSE,5.8,-,N/A,,Scattered Clouds,150,2013-03-30 04:00:00
11:30 AM,95.0,69.8,44,29.77,6.2,South,12.7,-,N/A,,Scattered Clouds,170,2013-03-30 04:30:00
12:00 PM,95.0,68.0,41,29.74,6.2,SE,4.6,-,N/A,,Scattered Clouds,140,2013-03-30 05:00:00
12:30 PM,95.0,68.0,41,29.74,6.2,South,4.6,-,N/A,,Scattered Clouds,170,2013-03-30 05:30:00
1:00 PM,96.8,68.0,39,29.71,6.2,SSE,11.5,-,N/A,,Scattered Clouds,150,2013-03-30 06:00:00
1:30 PM,96.8,69.8,41,29.71,6.2,SSE,10.4,-,N/A,,Scattered Clouds,160,2013-03-30 06:30:00
2:00 PM,98.6,68.0,37,29.68,6.2,SSE,9.2,-,N/A,,Scattered Clouds,150,2013-03-30 07:00:00
2:30 PM,96.8,68.0,39,29.68,6.2,SSW,10.4,-,N/A,,Scattered Clouds,200,2013-03-30 07:30:00
3:00 PM,98.6,69.8,39,29.65,6.2,SE,12.7,-,N/A,,Scattered Clouds,130,2013-03-30 08:00:00
3:30 PM,98.6,66.2,35,29.65,6.2,SE,11.5,-,N/A,,Scattered Clouds,130,2013-03-30 08:30:00
4:00 PM,98.6,66.2,35,29.65,6.2,SE,11.5,-,N/A,,Scattered Clouds,130,2013-03-30 09:00:00
4:30 PM,96.8,66.2,37,29.65,6.2,SE,11.5,-,N/A,,Scattered Clouds,140,2013-03-30 09:30:00
5:00 PM,96.8,68.0,39,29.65,6.2,SSE,9.2,-,N/A,,Partly Cloudy,150,2013-03-30 10:00:00
5:30 PM,95.0,68.0,41,29.65,6.2,SSE,12.7,-,N/A,,Partly Cloudy,160,2013-03-30 10:30:00
6:00 PM,95.0,68.0,41,29.65,6.2,SSE,13.8,-,N/A,,Partly Cloudy,160,2013-03-30 11:00:00
6:30 PM,93.2,69.8,46,29.68,5.6,SSE,10.4,-,N/A,,Partly Cloudy,160,2013-03-30 11:30:00
7:00 PM,93.2,69.8,46,29.68,5.6,SSE,6.9,-,N/A,,Partly Cloudy,160,2013-03-30 12:00:00
7:30 PM,91.4,69.8,49,29.68,5.6,South,6.9,-,N/A,,Partly Cloudy,170,2013-03-30 12:30:00
8:00 PM,91.4,71.6,52,29.71,5.6,SSE,5.8,-,N/A,,Partly Cloudy,160,2013-03-30 13:00:00
8:30 PM,91.4,71.6,52,29.71,5.6,SSE,5.8,-,N/A,,Partly Cloudy,160,2013-03-30 13:30:00
9:00 PM,89.6,71.6,55,29.71,5.6,SSW,6.9,-,N/A,,Partly Cloudy,200,2013-03-30 14:00:00
9:30 PM,89.6,71.6,55,29.74,5.6,SSW,5.8,-,N/A,,Partly Cloudy,200,2013-03-30 14:30:00
10:00 PM,89.6,71.6,55,29.74,5.6,South,6.9,-,N/A,,Partly Cloudy,190,2013-03-30 15:00:00
10:30 PM,87.8,71.6,58,29.74,5.6,South,8.1,-,N/A,,Partly Cloudy,180,2013-03-30 15:30:00
11:00 PM,87.8,71.6,58,29.74,5.6,SSW,8.1,-,N/A,,Partly Cloudy,210,2013-03-30 16:00:00
11:30 PM,87.8,71.6,58,29.74,5.6,South,8.1,-,N/A,,Partly Cloudy,190,2013-03-30 16:30:00